Huntington, WV

7:00 PM EDT on October 16, 2017 (GMT -0400)
Tri-State / Ferguson

Weather History for KHTS - October, 2011

Change the Weather History Date:

Thursday, October 13, 2011

  Actual Average Record
Temperature  
Mean Temperature 61 °F 57 °F  
Max Temperature 67 °F 69 °F 89 °F (1969)
Min Temperature 54 °F 46 °F 27 °F (1988)
Degree Days  
Heating Degree Days 4 8  
Month to date heating degree days 84 87  
Since 1 July heating degree days 139 145  
Cooling Degree Days 0 1  
Month to date cooling degree days 2 15  
Year to date cooling degree days 1239 1126  
Growing Degree Days 10 (Base 50)    
Moisture  
Dew Point 58 °F    
Average Humidity 94    
Maximum Humidity 100    
Minimum Humidity 87    
Precipitation  
Precipitation 0.59 in 0.09 in 3.70 in (1893)
Month to date precipitation 1.29 1.14  
Year to date precipitation 49.51 34.17  
Snow  
Snow 0.00 in 0.00 in 0.00 in (2016)
Month to date snowfall 0.0 0.0  
Since 1 September snowfall 0.0 0.0  
Snow Depth 0.00 in    
Sea Level Pressure  
Sea Level Pressure 29.61 in    
Wind  
Wind Speed 2 mph (SSW)    
Max Wind Speed 9 mph    
Max Gust Speed 13 mph    
Visibility 5 miles    
Events Fog , Rain , Thunderstorm    
T = Trace of Precipitation, MM = Missing Value Source: NWS Daily Summary

Daily Weather History Graph

Daily Weather History Graph

Search for Another Location

Airport or City:

Trip Planner

Search our weather history database for the weather conditions in past years. The results will help you decide how hot, cold, wet, or windy it might be!

Date:

Astronomy

Oct. 13, 2011 Rise Set
Actual Time 7:36 AM EDT 6:55 PM EDT
Civil Twilight 7:10 AM EDT 7:22 PM EDT
Nautical Twilight 6:39 AM EDT 7:52 PM EDT
Astronomical Twilight 6:09 AM EDT 8:23 PM EDT
Moon 7:32 PM EDT (10/13) 9:05 AM EDT (10/13)
Length of Visible Light 12h 11m
Length of Day
11h 18m
Full, 98% of the Moon is Illuminated
Oct 13
Full
Oct 19
Last Quarter
Oct 26
New
Nov 2
First Quarter
Nov 10
Full

Hourly Weather History & Observations

Time (EDT) Temp. Dew Point Humidity Pressure Visibility Wind Dir Wind Speed Gust Speed Precip Events Conditions
12:51 AM 57.9 °F 57.0 °F 97% 29.77 in 10.0 mi Calm Calm - N/A   Overcast
1:51 AM 57.9 °F 57.0 °F 97% 29.75 in 10.0 mi East 3.5 mph - N/A   Overcast
2:23 AM 57.2 °F 57.2 °F 100% 29.75 in 3.0 mi Calm Calm - N/A   Mostly Cloudy
2:51 AM 57.0 °F 55.9 °F 96% 29.73 in 3.0 mi Calm Calm - N/A   Mostly Cloudy
3:28 AM 55.4 °F 55.4 °F 100% 29.72 in 1.8 mi Calm Calm - N/A   Partly Cloudy
3:41 AM 55.4 °F 55.4 °F 100% 29.72 in 3.0 mi Calm Calm - N/A   Scattered Clouds
3:44 AM 55.4 °F 55.4 °F 100% 29.72 in 1.8 mi Calm Calm - N/A   Scattered Clouds
3:51 AM 55.9 °F 55.0 °F 97% 29.71 in 0.5 mi Calm Calm - N/A   Mostly Cloudy
4:28 AM 55.4 °F 55.4 °F 100% 29.71 in 0.5 mi Calm Calm - N/A   Overcast
4:33 AM 55.4 °F 53.6 °F 94% 29.71 in 0.2 mi ESE 3.5 mph - N/A   Overcast
4:40 AM 55.4 °F 55.4 °F 100% 29.71 in 0.8 mi Calm Calm - N/A   Overcast
4:48 AM 55.4 °F 55.4 °F 100% 29.70 in 2.0 mi Calm Calm - N/A   Overcast
4:51 AM 55.9 °F 55.0 °F 97% 29.69 in 4.0 mi Calm Calm - N/A   Overcast
4:57 AM 55.4 °F 55.4 °F 100% 29.70 in 1.0 mi NNE 3.5 mph - N/A   Overcast
5:04 AM 55.4 °F 55.4 °F 100% 29.70 in 0.5 mi Calm Calm - N/A Fog Fog
5:11 AM 55.4 °F 53.6 °F 94% 29.70 in 0.5 mi Calm Calm - N/A Fog Fog
5:26 AM 55.4 °F 53.6 °F 94% 29.69 in 0.5 mi Calm Calm - N/A Fog Fog
5:49 AM 55.4 °F 55.4 °F 100% 29.70 in 0.5 mi East 3.5 mph - N/A Fog Fog
5:51 AM 55.0 °F 55.0 °F 100% 29.69 in 0.5 mi ESE 3.5 mph - N/A Fog Fog
5:58 AM 55.4 °F 55.4 °F 100% 29.69 in 1.2 mi ESE 3.5 mph - N/A Fog Fog
6:21 AM 53.6 °F 53.6 °F 100% 29.68 in 0.5 mi ENE 3.5 mph - N/A Fog Fog
6:35 AM 53.6 °F 53.6 °F 100% 29.69 in 0.2 mi Calm Calm - N/A Fog Fog
6:51 AM 55.0 °F 55.0 °F 100% 29.68 in 0.8 mi Calm Calm - N/A Fog Fog
6:55 AM 55.4 °F 55.4 °F 100% 29.69 in 2.0 mi Calm Calm - N/A Fog Fog
7:03 AM 55.4 °F 55.4 °F 100% 29.68 in 7.0 mi Calm Calm - N/A Fog Fog
7:51 AM 55.9 °F 55.9 °F 100% 29.67 in 9.0 mi Calm Calm - N/A   Overcast
8:51 AM 57.0 °F 57.0 °F 100% 29.68 in 7.0 mi Calm Calm - N/A   Overcast
9:37 AM 59.0 °F 57.2 °F 94% 29.65 in 3.0 mi Calm Calm - 0.04 in Rain Light Rain
9:51 AM 59.0 °F 57.9 °F 96% 29.64 in 2.0 mi Calm Calm - 0.04 in   Mostly Cloudy
10:32 AM 60.8 °F 59.0 °F 94% 29.64 in 3.0 mi Calm Calm - N/A   Overcast
10:51 AM 61.0 °F 59.0 °F 93% 29.62 in 3.0 mi ENE 3.5 mph - N/A   Overcast
11:51 AM 63.0 °F 59.0 °F 87% 29.61 in 6.0 mi Calm Calm - 0.00 in Rain Light Rain
12:34 PM 62.6 °F 60.8 °F 94% 29.60 in 6.0 mi Calm Calm - 0.00 in Rain , Thunderstorm Light Thunderstorms and Rain
12:51 PM 61.0 °F 60.1 °F 97% 29.58 in 2.0 mi Calm Calm - 0.03 in Rain , Thunderstorm Thunderstorms and Rain
1:21 PM 62.6 °F 60.8 °F 94% 29.58 in 4.0 mi ENE 3.5 mph - 0.06 in Rain , Thunderstorm Light Thunderstorms and Rain
1:43 PM 62.6 °F 60.8 °F 94% 29.56 in 6.0 mi Calm Calm - 0.07 in Rain Light Rain
1:51 PM 63.0 °F 61.0 °F 93% 29.55 in 7.0 mi South 3.5 mph - 0.07 in Rain Light Rain
2:13 PM 62.6 °F 62.6 °F 100% 29.56 in 5.0 mi SW 6.9 mph - 0.01 in Rain Light Rain
2:51 PM 63.0 °F 61.0 °F 93% 29.53 in 5.0 mi SW 3.5 mph - 0.01 in Rain Light Rain
3:48 PM 62.6 °F 60.8 °F 94% 29.52 in 10.0 mi Calm Calm - 0.00 in   Overcast
3:51 PM 63.0 °F 61.0 °F 93% 29.51 in 10.0 mi Calm Calm - 0.00 in   Overcast
4:21 PM 64.4 °F 62.6 °F 94% 29.52 in 10.0 mi South 4.6 mph - 0.00 in   Overcast
4:51 PM 64.9 °F 61.0 °F 87% 29.50 in 10.0 mi SSE 3.5 mph - 0.00 in   Mostly Cloudy
4:59 PM 64.4 °F 62.6 °F 94% 29.51 in 10.0 mi Calm Calm - N/A   Mostly Cloudy
5:07 PM 66.2 °F 62.6 °F 88% 29.51 in 10.0 mi South 4.6 mph - N/A   Scattered Clouds
5:20 PM 66.2 °F 62.6 °F 88% 29.51 in 10.0 mi Calm Calm - N/A   Mostly Cloudy
5:34 PM 66.2 °F 60.8 °F 83% 29.51 in 10.0 mi Variable 3.5 mph - N/A   Mostly Cloudy
5:51 PM 64.9 °F 61.0 °F 87% 29.49 in 10.0 mi Calm Calm - N/A   Mostly Cloudy
6:51 PM 63.0 °F 62.1 °F 97% 29.50 in 4.0 mi Calm Calm - 0.02 in Rain Light Rain
7:28 PM 62.6 °F 62.6 °F 100% 29.52 in 2.5 mi West 4.6 mph - 0.11 in Rain Heavy Rain
7:41 PM 60.8 °F 60.8 °F 100% 29.52 in 1.5 mi WSW 4.6 mph - 0.21 in Rain Heavy Rain
7:47 PM 60.8 °F 60.8 °F 100% 29.52 in 2.0 mi WSW 4.6 mph - 0.25 in Rain Rain
7:51 PM 61.0 °F 60.1 °F 97% 29.52 in 3.0 mi WSW 5.8 mph - 0.26 in Rain Rain
8:51 PM 61.0 °F 59.0 °F 93% 29.53 in 10.0 mi WSW 4.6 mph - 0.06 in Rain Light Rain
9:51 PM 61.0 °F 60.1 °F 97% 29.54 in 10.0 mi SW 4.6 mph - 0.01 in Rain Light Rain
10:42 PM 60.8 °F 59.0 °F 94% 29.55 in 10.0 mi SW 8.1 mph - 0.01 in Rain Light Rain
10:49 PM 60.8 °F 59.0 °F 94% 29.55 in 10.0 mi SW 6.9 mph - 0.01 in   Overcast
10:51 PM 60.1 °F 59.0 °F 96% 29.54 in 10.0 mi SW 6.9 mph - 0.01 in   Overcast
11:01 PM 60.8 °F 59.0 °F 94% 29.55 in 6.0 mi WSW 9.2 mph - 0.00 in Rain Light Rain
11:17 PM 60.8 °F 59.0 °F 94% 29.55 in 5.0 mi SW 6.9 mph - 0.03 in Rain Light Rain
11:30 PM 60.8 °F 59.0 °F 94% 29.55 in 9.0 mi SSW 6.9 mph - 0.03 in Rain Light Rain
11:37 PM 60.8 °F 59.0 °F 94% 29.55 in 10.0 mi SSW 5.8 mph - 0.03 in Rain Light Rain
11:46 PM 60.8 °F 59.0 °F 94% 29.54 in 10.0 mi SSW 5.8 mph - 0.03 in   Overcast
11:51 PM 60.1 °F 59.0 °F 96% 29.53 in 10.0 mi SSW 8.1 mph - 0.03 in   Overcast